Terminal Aerodrome Forecast
Issued by NWS

Home | Current Version | Previous Version | Text Only | Print | Product List | Glossary On
Versions: 1 2 3 4 5 6 7 8 9 10 11 12 13 14 15 16 17 18 19 20 21 22 23 24 25 26 27 28 29 30 31 32 33 34 35 36 37 38 39 40 41 42 43 44 45 46 47 48 49 50
000
FTUS46 KEKA 040219 AAA
TAFACV
TAF AMD
KACV 040219Z 0402/0424 30006KT 3SM BR BKN003
     FM040500 VRB04KT 2SM BR OVC003
     FM040800 VRB02KT 3/4SM BR VV002
     FM041900 32004KT P6SM FEW004 SCT200=

USA.gov is the U.S. government's official web portal to all federal, state and local government web resources and services.